Location: Mana�l
(15.0115°N, 12.5022°W)
Time: 05:44:04
(UTC+00:00)

Meteor 2-6 Rocket - Pass Details

Date: 07 June 2020
Orbit: 806 x 914 km, 81.3° (Epoch: 05 July)

Event Time Altitude Azimuth Distance (km) Brightness Sun altitude
Rises 05:43:48 0° 351° (N) 3,462 7.6 -8.6°
Reaches altitude 10° 05:46:17 10° 349° (N) 2,508 6.9 -8.1°
Maximum altitude 05:51:56 72° 266° (W) 890 4.2 -6.8°
Drops below altitude 10° 05:57:26 10° 182° (S) 2,433 6.3 -5.6°
Sets 05:59:48 0° 180° (S) 3,351 7.1 -5.1°
